STARLINK-4658, 53612

Orbit data source: Space-Track

STARLINK-4658, 53612 is a payload satellite owned by SpaceX/Seattle (US) in LEO that was launched on Sun, 28 Aug 2022 UTC via an FALCON 9 launch vehicle from the Air Force Eastern Test Range (AFETR). Payload-class satellites include a variety of spacecraft equipped with specific instruments for various scientific and technological missions. These include communications satellites like Starlink; space stations such as the ISS; scientific satellites like the Hubble; Earth observation satellites from companies like Planet Labs, Umbra, and HawkEye 360; GPS; miniature CubeSats for education and research; and military/defense satellites.

Loading next visibility...
Identifier
53612, 2022-104AA
Orbit
LEO
Country
Flag of USUS
Related business
Manufacturer
SpaceX/Seattle
Mission
Operational Commercial Communications
Bus & Motor
STARLINK, Unknown motor
Mass
300 kg wet, ~290 kg dry
Launch date (UTC)
2022-08-28 (3 years ago)
Launch vehicle
FALCON 9
Launch site
Air Force Eastern Test Range (AFETR)
Object type
Payload
Rocket body
Debris
Shape & HBR
Box + 1 Pan, 10.1 m
Radar Cross Section
13.562 m², Large (>1 m²)

Expand to show TLE details & history
Last TLE update: 18 hours ago

TLE from 18 hours ago
0 STARLINK-4658
1 53612U 22104AA  25292.26500645  .00000099  00000-0  24331-4 0  9999
2 53612  53.2157 149.0744 0001347  82.2977 277.8168 15.08841536174283
Epoch: 2025-10-19T06:21Z
TLE epoch observation values (Epoch: 2025-10-19T06:21:36.557Z)
Latitude
-0.00002°
Longitude
25.68791°
Altitude
540.509 km
Speed
7.593 km/s
True Right ascension
09h 56m 17s
True Declination
0° 00' 00"
Sunlit
Object was in daylight at epoch
Visualization orbit readout
Latitude
Unknown
Longitude
Unknown
Altitude
Unknown
Speed
Unknown
Apparent Right ascension
Unknown
Apparent Declination
Unknown
Sunlit
N/A
Visualization observer readout
Local Sidereal Time
19:10:37
Azimuth
Unknown
Elevation
Unknown
Doppler factor
Unknown
Orbital elements
Apogee altitude
540.916 km
Perigee altitude
539.052 km
Semi-major axis
6,918.121 km
Eccentricity
0.00013
Inclination
53.2157°
RAAN
149.0744°
Arg. of periapsis
82.2977°
True anomaly
277.80151°
Mean anomaly
277.8168°
Eccentric anomaly
277.80915°
Mean motion
3.77191 °/min
Orbital period
95.44 mins
BSTAR
0.000024331
Loading maneuver chart data...
Computing Atmospheric mass density...
Loading historical data...
Loading historical data...
Loading historical data...
Loading historical data...
Loading historical data...
Loading historical data...
Loading historical data...

Documentation

Showing up to 5 results
|